{"data":{"norad_id":59865,"intl_designator":"2024-098H","name":"STARLINK-31938","alt_names":[],"object_type":"PAYLOAD","status":"ACTIVE","operator":null,"country":"US","launch_date":"2024-05-24","launch_site_code":"AFETR","launch_vehicle":null,"mission":null,"orbit_class":"UNKNOWN","rcs_meters":null,"size_class":null,"mass_kg":null,"dimensions":null,"purposes":["comms"],"wikipedia_slug":null,"has_3d_model":false,"image_url":null,"decayed_at":null,"tle_current":{"epoch":"2026-09-21T08:28:57.021600Z","epoch_age_seconds":100751,"freshness":"FRESH","line1":"1 59865U 24098H   26264.35343775 -.00000471  00000+0 -76032-5 0  9999","line2":"2 59865  43.0033 252.7050 0000994 268.0789  91.9949 15.27576383131778","mean_motion":15.27576383,"eccentricity":9.94e-5,"inclination_deg":43.0033,"raan_deg":252.705,"arg_perigee_deg":268.0789,"mean_anomaly_deg":91.9949,"bstar":-7.6032e-6,"rev_number":13177,"period_min":94.266971918746,"perigee_km":482.37792368572,"apogee_km":483.74192963474,"semimajor_km":6861.1969266602,"source":"CELESTRAK","updated_at":"2026-09-22T09:00:49.101617Z"}}}